Find Starlink 35580

NORAD ID: 66155 Int'l Des: 2025-240 Owner: SPXS Country: US Constellation: starlink operational
LEOCIRCULAR

現在のビュー

3D地球を読み込み中...

About Starlink 35580

Starlink 35580 (NORAD 66155) is a starlink constellation satellite (v2 mini) launched Oct 25, 2025 by SPXS of US. It operates in LEO, CIRCULAR orbit with a mass of 575.00 kg.

次回通過

Passes for default location (London). Set your location on the main map for personalized predictions.

高度履歴

Loading altitude history...

軌道要素

1 66155U 25240K 26264.31412910 .00028830 00000-0 86004-3 0 9999
2 66155 53.1592 229.6027 0001839 59.7766 300.3418 15.34438897 52007
Epoch: Sep 21, 2026 • Age: 17 hours

現在のステータス

高度 466.7 km
遠地点 / 近地点 N/A
速度 7.64 km/s
衛星直下点 48.33°N, 93.34°W
打ち上げ日 Oct 25, 2025
運用期間 0.9 years
タイプ internet

技術仕様

分類 Payload
質量 575.00 kg
乾燥質量 530.00 kg
長さ 0.30 m
スパン 29.00 m
形状 ? Box + pan
製造者 SPXS
バスタイプ Starlink V2MO
フェーズステータス In Orbit
所有者/国 SPXS/US

Most Searched